RH
22 23 20 15 8 4 12 20 26 29 28 27 27 26 23 18 16 16 18 19 19 20 21 23 24 24 23 22 23 23 24 25 25 22 21 19 11 8 9 8 8 8 10 11 13 15 19 23 25 26 23 19 15 13 11 9 8 8 8 9 9 9 8 9 12 21 32 41 49 55 60 63 64 66 68 64 57 52 52 55 58 59 58 58 58 59 57 51 45 45 49 53 58 63 64 67 72
9 9 9 7 4 5 11 17 27 31 29 27 27 27 24 20 16 16 17 18 19 20 21 22 23 23 22 22 22 22 24 25 24 23 20 16 11 9 8 9 9 9 9 11 12 14 16 19 21 21 17 14 11 10 9 8 8 8 9 9 9 9 9 9 9 14 23 32 38 44 51 56 62 64 65 65 62 58 54 55 57 60 61 60 60 60 59 53 46 44 49 57 61 62 64 64 66
4 4 3 4 3 5 9 17 28 30 27 26 27 28 27 24 19 16 16 17 20 21 22 22 22 22 21 21 21 23 25 25 24 23 20 16 11 9 8 8 9 9 9 10 12 14 14 14 15 15 13 11 9 8 7 8 8 8 8 8 9 9 9 9 9 10 14 20 28 34 39 44 51 57 62 64 64 62 59 57 57 60 63 62 62 62 61 55 47 44 47 56 64 65 63 65 69
3 3 3 4 3 6 9 16 27 28 26 27 27 29 30 28 22 18 17 17 19 22 24 23 23 22 22 22 22 24 26 25 24 23 20 16 11 8 8 7 8 9 9 11 13 14 14 13 13 12 11 10 8 8 8 7 7 8 8 7 7 7 8 8 8 9 10 12 17 22 28 34 38 42 49 56 61 63 64 63 62 63 64 64 64 64 62 55 48 44 47 54 61 64 62 64 75
3 3 4 4 5 7 8 13 22 26 25 27 28 28 30 32 27 21 18 17 18 22 25 25 24 23 23 24 24 26 27 25 23 23 21 16 11 8 7 7 7 6 7 9 10 12 11 11 11 11 9 8 8 8 7 7 7 7 6 6 5 5 6 6 7 7 8 9 10 13 17 23 28 32 36 42 48 54 59 62 63 65 64 64 65 65 61 55 48 42 44 55 61 60 57 58 68
4 3 4 4 5 7 12 18 23 26 23 22 28 29 27 31 31 25 19 17 18 21 24 26 26 25 24 24 24 26 26 25 23 23 21 17 11 8 7 7 6 6 6 7 7 8 7 8 8 8 7 7 7 7 7 7 6 6 5 5 4 5 5 5 6 6 6 7 8 9 10 13 17 23 27 32 37 41 45 48 52 55 56 57 57 57 56 54 48 40 40 51 59 55 52 56 62
4 4 4 4 5 6 14 20 19 20 16 13 23 28 27 29 29 28 24 20 19 22 25 27 27 27 26 23 25 26 26 25 24 24 22 18 12 8 7 6 6 6 6 7 7 6 6 7 7 7 7 7 7 7 6 6 6 6 6 6 5 5 5 5 5 5 6 6 6 7 8 9 11 13 16 22 26 30 34 37 41 43 45 46 46 46 47 48 44 38 38 45 51 48 46 54 60
6 6 5 5 7 8 12 11 9 10 7 8 15 21 28 30 29 27 28 27 23 21 23 27 28 28 25 22 25 26 25 24 24 24 23 20 15 10 8 7 6 6 6 6 6 6 6 7 7 7 7 8 7 7 6 6 6 6 7 6 7 6 6 6 6 5 5 5 6 6 6 7 8 9 10 13 15 18 22 26 29 32 34 37 38 40 41 41 39 35 34 35 36 35 36 45 53
9 8 7 7 8 11 13 7 5 6 4 6 8 14 23 28 30 27 26 29 28 24 20 22 24 24 21 20 22 24 25 25 25 25 24 22 19 13 9 8 7 7 7 7 7 7 7 6 7 7 7 8 8 8 7 7 7 6 7 7 7 7 7 7 7 6 6 6 5 5 5 6 6 7 8 9 10 11 13 15 18 20 22 25 28 31 32 31 33 34 31 28 25 25 25 30 41
10 10 9 8 10 15 21 16 8 6 4 5 6 12 20 25 29 28 24 25 29 27 22 19 19 19 18 17 19 23 26 26 26 26 25 24 22 19 11 8 8 8 8 9 9 8 7 7 7 7 7 8 8 9 8 7 7 7 7 7 7 7 7 7 7 7 7 6 6 6 6 6 6 6 6 7 7 9 9 10 12 13 15 17 20 22 24 25 27 30 27 25 23 24 24 24 34
13 12 11 11 20 26 28 24 13 7 6 5 6 11 20 25 27 27 24 24 27 28 24 21 19 18 18 17 19 24 27 27 28 28 27 26 25 25 18 10 8 8 8 9 9 8 7 7 7 7 7 8 9 9 9 9 8 8 8 8 8 8 8 8 8 7 7 7 7 7 6 6 6 6 6 6 6 7 8 8 9 10 11 12 15 17 18 20 22 24 22 21 21 24 27 26 31
16 15 12 12 22 25 22 20 12 7 8 7 6 11 18 22 25 26 24 22 24 26 26 24 22 21 20 18 19 24 28 29 30 30 29 29 29 29 25 17 10 8 8 8 8 8 8 8 7 8 8 8 9 9 10 10 9 9 9 9 9 9 9 9 8 8 8 8 7 7 7 7 6 6 6 6 6 6 6 7 7 7 9 9 11 13 14 17 20 21 21 21 20 23 28 29 29
18 17 15 13 19 19 14 13 10 8 10 8 7 13 17 20 25 27 24 22 22 23 25 28 28 26 24 20 20 24 31 32 32 32 31 31 33 31 29 24 16 10 8 8 7 8 8 8 8 8 9 9 9 10 10 11 11 10 10 10 10 10 10 10 10 9 9 8 8 8 8 7 7 7 6 6 6 6 7 6 7 7 8 9 9 11 13 16 19 21 21 20 19 21 25 29 30
20 18 17 16 16 15 12 13 15 12 14 12 10 14 17 24 28 28 24 21 22 21 21 25 30 32 28 26 28 31 34 36 36 36 34 33 35 34 32 28 22 13 9 8 8 8 9 9 9 9 9 10 10 10 10 11 11 12 11 11 11 11 11 11 11 11 11 10 9 9 9 8 8 8 7 7 7 7 7 7 7 9 9 10 13 16 21 24 26 25 22 19 18 20 23 25 28
20 19 18 17 16 20 19 19 18 15 18 15 12 16 19 25 25 25 24 19 18 17 17 19 23 32 33 33 38 39 40 42 40 38 35 34 35 35 33 30 25 17 11 9 9 10 10 10 10 10 10 10 10 10 10 11 11 12 12 12 12 12 12 12 13 12 12 12 11 10 10 9 9 9 8 8 8 7 7 8 8 9 10 11 14 19 24 27 27 25 21 18 17 18 21 23 25
20 19 19 18 20 30 29 21 16 17 24 19 14 17 18 22 19 21 22 17 15 11 12 13 14 23 29 33 37 39 42 41 39 38 36 33 34 35 34 31 28 20 14 10 10 11 11 12 12 11 11 11 11 11 11 11 11 12 12 12 11 11 12 12 13 13 13 13 12 12 12 11 10 10 10 9 9 9 8 9 9 9 9 10 11 13 16 17 17 16 14 14 14 15 17 19 22
19 19 19 18 23 35 31 20 18 21 25 19 16 17 16 19 17 16 16 15 14 8 8 9 8 11 16 23 29 36 40 39 39 39 37 34 33 35 34 33 31 24 19 14 11 10 11 13 14 13 13 12 12 12 11 11 11 11 11 11 11 11 11 11 12 12 13 13 13 13 13 12 12 11 11 11 10 10 9 9 9 9 9 10 10 11 12 12 12 12 12 12 13 14 15 16 17
20 20 19 20 30 38 31 23 22 21 20 18 18 17 15 16 16 15 13 13 13 9 8 8 7 6 7 11 19 29 34 36 39 38 36 34 34 35 33 32 32 28 24 20 15 11 11 12 14 15 14 12 12 12 12 12 11 11 11 10 10 10 10 10 11 12 12 13 13 13 13 13 13 13 12 12 12 11 11 10 10 10 9 9 9 10 10 10 11 11 11 11 11 12 12 13 13
20 20 20 22 29 31 24 22 22 19 18 18 17 16 16 15 15 15 13 13 12 9 8 8 7 6 6 7 12 22 27 29 32 34 33 32 33 33 31 31 32 32 28 25 20 15 12 10 12 14 14 13 12 12 12 12 12 11 10 10 10 10 10 11 11 12 12 12 12 12 13 13 13 13 13 12 13 12 12 12 12 11 11 10 10 10 10 9 9 9 9 9 9 9 10 10 10
17 18 20 24 23 20 19 19 19 18 17 16 16 15 15 14 14 14 13 12 11 10 9 8 7 7 8 7 10 18 26 29 27 28 29 28 29 28 27 28 32 34 33 28 23 19 15 11 11 13 13 13 12 12 12 12 12 11 10 10 10 10 11 12 12 12 12 12 12 12 12 13 13 13 13 12 12 12 12 12 13 13 13 13 12 12 11 11 11 10 10 9 9 8 8 9 9
15 16 19 22 19 17 19 18 17 17 16 15 15 15 14 14 14 13 13 13 12 12 11 10 8 8 8 8 9 13 22 30 32 30 28 27 26 26 26 27 32 35 35 30 24 21 17 13 11 11 12 12 13 12 12 13 12 11 10 10 10 11 12 12 12 12 12 13 12 13 13 13 13 13 13 13 13 13 12 12 13 13 13 13 13 13 13 13 13 13 12 12 11 10 10 9 9
16 16 17 18 17 18 18 17 17 17 16 16 15 15 15 14 14 14 13 13 13 13 12 11 9 9 8 8 8 8 12 19 27 32 31 29 26 25 25 26 32 34 32 29 25 21 19 16 12 10 10 11 13 13 13 13 12 12 11 10 10 11 12 12 13 13 13 13 13 14 14 14 14 14 14 13 13 13 13 13 13 13 13 13 13 14 14 14 14 14 14 14 13 13 12 12 11
17 16 16 17 17 17 17 17 17 17 17 16 15 15 15 14 14 14 14 14 15 15 14 13 11 11 9 8 9 8 8 11 17 26 32 33 30 26 24 24 27 28 27 27 25 23 20 18 14 11 10 11 13 13 13 13 13 12 11 11 11 11 11 12 13 14 14 14 14 14 14 14 13 13 13 13 13 13 13 13 13 13 13 13 14 14 14 14 14 14 14 14 14 14 14 14 13
16 16 15 15 16 16 17 17 16 17 17 16 15 14 14 15 14 12 13 14 15 14 14 14 12 11 11 9 9 8 9 10 13 21 29 34 34 30 26 23 23 24 24 24 24 23 20 18 16 13 10 10 12 12 13 13 13 13 12 11 11 11 11 12 13 13 14 14 14 13 13 13 12 12 12 12 12 12 12 12 12 12 12 13 13 13 13 13 13 13 13 13 13 13 13 13 13
15 16 15 15 15 16 17 17 17 18 17 17 16 14 14 15 14 12 12 13 13 12 12 12 12 11 11 9 8 9 9 11 12 16 23 30 35 35 32 27 23 22 21 22 23 22 20 18 16 14 11 10 11 12 12 13 14 13 13 12 12 12 12 12 12 13 13 13 13 12 12 12 12 12 11 11 11 11 11 12 12 12 12 12 13 13 13 13 12 12 12 12 12 11 11 11 12
16 16 16 16 16 16 17 17 18 19 18 18 17 14 15 17 16 12 12 14 12 11 13 11 12 11 11 10 9 9 9 11 12 13 15 22 32 37 37 34 28 23 20 21 22 21 20 18 17 15 12 11 11 11 12 12 14 14 13 13 13 13 13 13 13 13 13 13 12 12 12 12 12 11 11 11 11 11 11 11 12 12 11 11 12 13 12 12 12 12 12 12 12 11 11 11 12
18 17 16 17 16 16 17 18 18 19 20 20 19 16 17 18 17 14 13 16 15 12 13 12 11 11 11 11 10 10 10 10 11 10 9 11 19 30 37 39 35 28 22 20 21 20 20 18 17 16 13 11 11 11 12 13 14 14 14 14 14 14 14 14 13 13 13 13 13 12 12 12 12 12 12 12 12 12 12 12 12 12 12 11 12 13 12 12 11 12 11 11 11 11 11 11 12
19 18 17 17 17 17 18 20 21 23 25 25 23 17 15 18 16 14 15 16 16 14 13 13 12 12 10 10 10 10 10 9 10 8 8 7 8 16 28 38 41 35 26 20 20 20 19 18 17 17 14 12 11 12 12 13 14 15 15 14 15 15 14 14 14 14 14 13 13 13 13 12 12 12 12 13 12 12 12 12 12 12 12 12 12 12 12 12 12 12 11 11 11 11 11 11 11
20 20 19 19 19 23 21 23 27 28 34 34 30 22 17 23 20 14 15 16 17 16 15 14 13 13 11 10 10 9 9 9 9 9 9 10 10 13 21 34 43 43 34 24 19 19 19 18 17 17 15 13 12 13 13 14 15 15 15 15 15 15 15 14 14 14 14 14 14 13 13 13 13 13 13 13 13 13 13 13 13 13 13 13 12 12 13 13 12 12 12 11 11 11 11 11 11
23 21 22 20 23 39 38 31 30 30 36 37 38 38 24 24 28 19 15 17 19 17 16 16 14 13 12 11 10 9 9 8 8 10 11 13 14 17 23 35 44 46 41 31 21 19 19 18 18 17 16 14 13 14 15 16 16 15 14 15 16 16 15 15 15 15 15 14 14 14 13 13 13 13 13 14 14 14 14 14 14 14 14 14 14 14 13 13 13 13 12 12 12 12 11 11 11
24 22 30 34 35 53 49 32 30 33 35 29 36 43 22 17 29 26 18 18 21 19 17 18 16 15 13 11 11 9 9 9 8 8 9 10 12 15 21 32 41 44 41 34 25 19 19 19 18 18 16 14 14 15 17 17 16 15 14 16 17 17 16 16 15 15 15 15 15 14 14 14 14 14 15 15 15 15 16 16 16 16 16 16 15 15 15 14 14 13 13 13 12 12 12 12 11
24 25 43 55 48 51 49 36 28 31 31 23 40 51 23 13 22 21 20 19 21 20 17 18 16 15 14 12 12 10 10 9 9 9 8 8 8 9 13 20 31 39 38 32 24 19 19 19 18 18 16 15 16 18 19 18 17 15 15 16 18 19 18 18 17 16 16 15 15 15 14 15 15 16 16 16 17 17 17 17 17 17 17 16 16 15 15 14 14 13 13 12 12 12 12 12 12
40 34 41 55 54 52 58 52 30 23 28 27 52 64 29 12 15 15 19 17 16 17 15 15 13 12 12 12 11 10 10 10 9 9 9 8 7 7 8 10 18 31 37 32 23 18 18 19 18 18 16 16 18 20 20 18 17 16 16 17 18 20 21 20 19 17 16 16 15 15 15 16 17 17 17 17 18 18 18 18 18 18 17 17 17 16 16 15 14 14 13 13 13 12 12 12 12
54 48 48 59 66 65 65 59 37 26 31 32 48 54 25 10 13 13 17 15 13 12 10 10 10 10 10 10 10 10 10 10 11 11 10 10 8 7 7 6 9 21 34 33 24 20 19 19 18 17 16 17 19 20 20 18 17 17 17 18 20 21 23 22 20 18 17 16 16 16 16 17 18 18 18 19 19 19 19 19 19 19 18 18 17 16 15 15 14 13 14 14 14 13 13 13 13
44 53 66 73 71 71 67 58 44 31 35 47 52 44 23 11 12 15 19 19 15 11 11 11 10 11 12 12 12 13 13 13 16 17 14 14 12 9 7 6 6 13 27 31 24 20 19 18 18 17 17 19 20 20 19 19 18 18 19 19 20 22 24 25 23 20 18 17 17 17 17 18 19 19 19 20 20 21 21 20 18 16 15 14 12 11 10 9 9 9 10 11 12 13 14 14 14
36 45 66 81 74 65 59 47 39 38 50 68 61 40 24 16 14 18 20 19 16 13 13 15 16 18 20 19 18 19 21 21 21 20 18 18 17 13 9 7 6 8 21 29 23 21 19 18 18 17 18 20 22 21 20 21 21 21 20 19 21 23 26 28 27 23 19 18 17 17 18 19 20 20 20 21 22 21 20 17 14 10 9 7 5 4 4 4 4 4 5 6 8 10 11 12 13
36 40 59 83 76 54 46 39 39 52 69 78 62 37 25 19 17 18 18 17 17 18 20 22 23 24 24 24 24 26 25 24 22 22 22 21 19 18 14 9 6 7 21 29 24 22 21 19 20 19 19 21 23 23 23 24 25 25 24 23 23 24 26 28 29 27 22 19 18 18 19 20 20 21 22 23 23 21 18 14 10 7 5 4 3 3 3 3 3 3 4 4 5 6 7 8 9
39 54 74 82 63 43 43 42 44 61 76 74 58 40 25 19 18 17 23 25 23 24 26 25 24 25 27 27 28 27 24 22 23 24 26 23 19 20 19 14 8 7 20 32 27 24 24 22 23 22 21 22 24 25 25 27 29 28 28 27 25 25 24 24 28 30 25 21 19 19 20 20 21 23 24 25 26 24 22 17 11 6 4 3 2 2 2 3 3 3 3 3 4 4 4 5 5
42 69 95 82 50 46 56 50 50 69 77 64 50 42 27 16 14 19 29 28 23 27 26 24 25 26 28 28 28 27 25 24 24 25 25 25 23 22 22 21 14 7 16 32 32 26 27 25 25 26 24 24 27 28 28 29 31 30 30 28 27 27 27 27 30 32 29 23 20 19 20 21 22 24 26 27 28 29 28 26 19 11 5 3 2 2 2 2 2 2 2 2 2 2 2 2 2
47 77 102 81 51 61 79 70 68 83 85 68 53 44 25 12 19 29 33 24 19 27 27 24 27 28 26 27 29 29 28 27 25 25 24 24 27 27 28 27 23 14 14 29 35 30 29 29 28 29 28 27 29 30 31 31 33 32 31 30 29 30 30 31 32 34 32 27 22 20 21 22 24 25 27 29 30 31 32 32 30 23 14 6 2 2 2 2 2 2 2 2 2 2 2 2 2
50 69 81 68 53 64 80 82 86 88 86 79 69 56 28 15 32 35 26 22 21 24 24 23 24 25 25 26 29 27 25 25 23 26 29 28 31 32 33 32 30 25 20 28 37 33 31 32 32 32 31 31 31 33 34 35 36 35 33 32 31 30 30 32 33 35 35 30 24 21 21 22 24 26 28 30 31 33 34 35 36 35 30 22 12 5 2 2 2 2 2 2 2 2 2 2 2
66 63 57 60 62 67 77 89 97 89 83 83 88 86 46 22 42 43 26 23 23 22 22 22 21 22 28 30 33 31 26 27 27 29 33 34 34 34 35 35 34 33 29 30 36 37 35 34 35 35 34 33 33 35 37 38 38 38 36 35 34 34 34 35 36 36 35 31 25 22 22 23 24 27 28 30 32 34 36 38 39 40 41 39 33 24 15 7 3 3 2 2 2 2 2 2 2
87 68 54 66 70 73 83 94 101 95 90 82 89 104 72 43 55 47 31 26 21 22 21 19 21 23 30 34 37 38 34 33 33 34 36 36 36 35 34 35 35 36 35 33 36 38 39 38 38 38 38 37 37 38 39 40 41 40 39 38 37 38 39 39 38 37 35 30 26 23 23 24 25 27 29 31 34 36 38 40 42 43 44 45 44 42 37 27 16 8 5 4 3 2 2 2 2
91 69 65 77 77 85 93 97 101 99 98 80 74 100 93 71 63 40 33 33 22 22 20 20 23 22 27 34 35 37 37 36 37 37 39 39 39 38 36 36 36 37 39 38 37 38 40 40 40 40 41 41 42 43 42 42 43 43 42 40 40 41 41 40 38 36 34 29 26 24 24 25 26 28 30 33 35 37 39 41 44 46 47 48 47 47 47 44 36 24 14 9 6 4 3 2 2
82 73 80 90 87 92 95 99 101 98 103 83 62 87 95 76 61 44 42 37 21 22 22 20 22 18 23 30 31 31 32 36 38 39 40 41 42 42 41 39 38 38 39 40 40 40 40 41 42 42 43 43 46 49 47 44 44 44 44 42 42 42 41 41 39 37 34 30 27 25 25 27 28 30 32 35 37 38 41 43 45 46 47 50 51 50 50 50 48 41 28 16 11 8 5 3 3
77 78 88 96 92 91 90 95 99 98 105 86 53 64 79 67 55 51 48 32 20 25 25 22 21 19 20 23 23 24 27 33 36 37 38 38 40 43 44 43 42 41 40 40 40 41 42 42 42 43 43 45 48 52 51 47 45 46 46 45 44 44 42 41 40 37 35 31 29 27 27 28 30 32 34 36 39 40 42 43 44 45 47 50 53 54 53 52 52 50 40 25 16 12 8 5 3
77 86 96 100 92 90 91 93 98 95 88 72 49 51 69 67 52 49 46 29 23 27 26 25 24 20 20 20 21 23 27 32 35 36 37 36 37 39 43 45 45 45 44 43 41 40 41 42 43 44 44 45 48 52 53 50 49 50 49 47 46 44 42 40 38 35 34 32 30 29 29 31 33 34 36 39 41 42 43 44 44 45 47 52 57 58 57 54 54 54 47 32 19 13 10 7 4
78 93 99 99 90 85 87 89 96 90 67 55 52 56 75 75 53 45 42 29 28 30 27 29 30 25 22 21 21 24 27 29 31 33 34 37 39 39 42 44 45 45 45 45 44 43 42 42 43 45 46 47 48 52 53 52 54 55 53 50 47 45 42 39 37 35 34 33 32 31 32 33 35 36 39 41 43 45 45 45 45 47 50 56 61 62 60 57 56 55 48 34 19 12 9 6 5
75 93 102 101 84 70 68 66 70 70 56 51 54 58 69 68 49 42 39 32 34 33 27 30 32 29 25 23 22 23 26 26 25 27 28 34 40 43 46 46 45 45 46 46 46 45 45 44 44 45 47 49 50 52 54 56 59 60 56 52 48 45 41 39 38 36 36 35 33 34 34 36 37 39 42 44 45 47 46 47 47 50 55 60 65 67 64 60 57 53 46 32 18 10 7 5 4
68 83 98 94 69 59 63 54 49 52 50 53 62 66 65 60 48 39 33 30 31 30 28 29 28 27 25 24 23 23 25 25 25 26 25 27 35 42 47 49 47 45 47 49 48 47 48 47 46 46 47 49 50 52 55 58 63 63 59 54 49 45 41 39 39 38 37 36 36 36 37 38 40 41 44 46 47 48 48 49 50 53 59 64 69 70 65 59 55 50 40 26 14 8 5 4 4
69 73 90 91 68 60 60 51 51 55 54 59 69 71 63 50 38 30 25 25 28 29 28 27 26 26 25 24 24 25 26 26 25 26 25 25 31 38 43 49 51 47 46 49 51 51 51 50 49 48 47 49 50 52 54 58 64 66 61 56 50 45 41 40 40 39 39 39 38 38 39 40 42 44 46 48 49 50 51 52 54 58 64 69 72 73 67 58 52 45 34 20 11 7 5 3 3
83 81 94 97 79 70 65 61 67 69 68 71 74 71 62 44 26 20 24 27 30 32 30 29 28 27 25 24 24 26 28 28 26 26 26 27 32 38 41 47 55 55 49 48 52 54 54 53 52 50 49 50 50 53 55 59 65 67 63 57 50 45 42 41 42 42 42 41 41 41 41 42 44 46 49 51 52 52 53 55 59 63 68 73 76 76 69 58 49 40 27 15 8 5 4 3 3
90 92 95 89 77 79 77 71 75 80 79 77 71 66 60 48 30 21 26 28 29 32 33 31 29 26 25 25 26 28 29 28 27 28 30 31 35 40 41 45 55 62 57 52 55 58 57 56 55 53 52 51 53 54 57 61 66 69 65 57 50 46 44 43 44 45 45 45 44 43 43 44 46 49 52 54 55 55 57 60 64 69 73 77 79 78 70 57 46 35 23 12 6 5 4 3 3
87 96 93 83 80 87 88 82 78 79 77 68 62 56 51 48 37 25 25 27 27 30 30 28 26 26 28 28 29 30 29 28 30 33 36 37 39 42 44 46 54 64 62 56 57 60 61 60 59 58 56 53 54 56 60 65 70 71 67 57 50 47 46 47 47 48 49 48 47 46 45 46 48 51 54 56 58 59 61 65 70 74 77 80 82 80 72 58 44 31 20 11 7 5 4 3 4
76 91 91 85 84 85 91 94 83 73 71 64 58 52 49 49 41 31 30 31 30 30 26 25 27 29 32 32 31 30 29 31 34 37 40 42 45 46 48 49 53 60 62 58 57 59 62 63 63 63 62 58 56 57 61 67 74 76 69 58 51 48 49 50 50 52 53 52 50 48 47 48 50 54 57 59 63 66 67 71 75 77 80 82 83 81 73 57 40 28 17 11 7 5 4 4 4
70 89 97 95 88 79 83 91 82 73 73 70 66 58 52 50 44 42 41 33 29 29 24 24 29 34 36 33 32 32 31 35 39 42 45 47 49 50 51 51 53 57 60 60 59 59 61 65 66 67 67 63 60 59 61 67 76 81 73 58 52 52 54 55 56 57 57 55 53 50 49 51 54 58 62 66 70 73 75 78 80 81 83 83 83 80 72 54 36 22 13 9 6 5 5 4 5
71 87 95 98 97 91 89 91 90 83 73 69 72 68 56 49 46 47 43 31 25 26 25 26 31 37 38 34 33 34 35 40 44 46 49 49 50 52 53 53 54 57 59 62 63 63 63 67 69 70 70 68 64 61 62 67 76 84 78 62 55 57 60 61 62 62 60 57 54 52 53 55 59 63 68 73 78 80 82 84 85 86 86 85 83 78 68 52 32 17 9 7 6 5 5 5 5
71 80 81 82 87 92 90 83 86 91 81 69 70 70 56 44 47 48 37 27 25 27 28 30 33 36 37 35 34 36 40 45 48 49 50 51 52 54 55 56 57 59 61 64 66 68 68 71 72 72 73 73 69 64 64 68 77 86 83 68 59 61 65 66 67 65 61 58 55 55 58 60 64 69 75 81 85 86 87 88 89 89 87 85 81 73 60 44 27 14 8 7 6 6 6 6 6
Wind_Speed
21 21 22 21 21 20 19 18 13 10 10 8 8 8 9 10 11 12 12 11 11 11 11 11 11 11 11 11 11 13 12 12 12 11 10 15 18 15 15 15 15 16 16 17 17 17 18 18 18 18 18 18 17 17 16 16 16 17 17 17 17 17 17 18 19 19 19 19 18 18 17 18 18 18 19 20 22 22 21 20 20 19 19 18 17 17 16 15 14 13 11 11 11 11 12 12 11
23 22 23 22 21 19 18 17 11 8 10 9 8 8 9 10 10 12 13 12 12 12 12 12 12 13 13 14 14 15 15 14 14 14 14 16 16 15 14 14 14 15 16 17 17 18 18 19 18 18 18 18 17 17 16 16 16 16 16 16 16 16 17 18 19 20 21 21 21 20 19 19 19 19 19 20 21 22 22 22 21 20 20 19 19 18 18 17 16 14 13 12 11 12 12 12 13
23 22 22 22 21 18 17 15 10 8 10 10 8 9 9 9 11 13 14 13 13 12 12 13 14 15 15 16 16 15 16 16 16 16 16 16 16 15 14 13 14 15 16 17 17 17 18 18 18 18 18 18 17 16 16 16 16 16 15 16 16 16 16 17 18 19 21 22 22 22 22 21 21 21 21 21 21 22 23 23 22 21 21 21 20 20 19 18 18 16 15 14 12 12 12 12 13
23 22 21 21 21 18 16 13 9 8 9 9 9 10 11 10 12 14 14 14 13 13 13 14 15 15 15 16 17 15 16 17 17 17 17 16 16 15 14 13 14 15 16 17 17 18 18 17 17 17 17 17 16 15 15 15 15 15 14 15 14 14 15 15 17 18 20 21 22 23 23 23 23 23 23 23 23 23 23 23 23 22 22 22 22 21 20 20 19 18 17 15 14 13 13 13 13
22 21 21 21 19 18 17 13 10 9 9 10 10 11 13 11 12 14 14 15 14 13 13 14 15 15 16 17 16 15 16 18 18 18 17 17 16 14 14 14 14 15 16 17 18 18 18 16 17 16 16 16 15 14 13 13 13 13 13 13 13 13 12 13 14 15 17 19 21 22 23 24 25 25 24 24 24 24 24 24 24 24 24 24 23 22 22 21 21 20 19 17 16 16 16 15 15
22 21 21 20 19 17 15 11 10 11 12 13 12 12 14 13 13 14 13 15 15 15 14 14 15 16 17 17 16 15 16 18 19 19 18 17 16 14 13 14 15 15 16 16 18 19 17 16 16 15 14 14 14 13 12 12 12 12 12 12 12 11 11 11 12 12 13 15 17 19 21 23 24 25 26 25 25 25 26 26 25 25 25 25 24 23 23 22 22 21 20 19 19 19 19 18 17
23 22 21 21 20 18 14 13 13 14 14 14 12 12 13 15 15 15 14 15 16 15 15 14 14 16 18 17 16 16 17 19 20 19 18 17 16 14 12 12 14 15 15 16 18 18 17 15 15 14 13 12 12 12 12 12 11 12 12 12 11 11 11 11 11 11 12 13 14 15 17 19 21 23 24 25 26 27 27 27 26 26 26 26 25 25 25 24 23 22 21 20 21 21 21 20 19
24 24 23 22 22 19 16 18 18 17 17 14 13 13 14 16 17 17 16 16 17 16 16 16 16 18 20 18 17 18 18 19 20 19 19 17 16 13 12 12 13 14 15 17 18 18 16 15 14 13 12 11 11 12 12 12 11 11 12 12 11 11 11 11 11 11 11 11 12 13 14 15 17 19 21 23 24 26 26 27 27 27 27 27 27 26 26 25 24 23 22 21 21 22 22 22 21
25 25 24 22 21 20 19 21 21 19 18 16 15 14 15 17 17 17 17 17 18 18 18 18 19 20 21 20 20 20 19 19 19 19 19 18 16 14 12 12 12 13 14 16 17 17 17 16 15 14 12 11 11 11 12 12 12 12 11 12 11 11 11 11 11 11 11 11 11 11 12 12 13 15 17 19 20 22 23 24 25 26 26 27 27 27 26 25 24 23 22 21 21 22 23 24 23
25 25 24 24 22 21 19 21 22 21 19 18 17 16 15 15 15 16 16 17 17 18 19 20 21 21 21 22 21 20 18 17 19 20 20 19 18 15 13 12 13 13 13 14 15 16 16 16 15 14 13 12 11 11 12 12 12 12 11 11 11 11 11 11 11 11 11 11 11 11 11 11 12 13 14 15 16 18 19 20 21 23 24 24 25 25 25 25 24 24 22 21 21 21 22 24 24
25 26 24 23 21 19 18 19 23 23 21 20 19 17 14 13 14 15 16 16 17 17 17 19 21 21 21 21 20 18 17 17 19 20 20 20 19 17 15 14 14 13 13 13 14 15 16 16 15 15 14 13 13 12 11 12 12 12 12 11 10 10 10 11 11 12 12 11 11 12 12 12 12 12 13 14 15 15 16 17 18 20 20 21 22 23 24 24 24 23 22 21 21 21 21 23 23
25 26 25 24 23 22 22 24 26 26 23 20 19 18 15 15 16 15 16 16 16 17 16 18 20 20 21 21 19 18 16 16 18 20 21 21 20 19 18 16 15 15 14 14 15 15 16 17 17 16 15 15 14 13 12 12 12 12 12 12 11 10 10 10 11 11 12 12 12 12 13 13 13 13 13 14 14 15 16 16 17 17 18 19 20 21 22 22 23 22 22 21 21 20 21 21 22
25 26 25 26 27 27 27 28 28 27 24 21 20 21 20 19 17 14 16 16 17 18 17 17 18 19 20 20 20 19 17 17 18 19 20 21 21 20 20 19 18 17 16 16 16 16 17 18 18 18 17 16 16 15 14 13 13 13 13 13 12 12 11 11 11 12 12 13 13 13 13 14 14 14 14 14 14 15 16 16 17 17 17 18 19 19 20 21 21 21 21 21 21 21 21 21 22
25 26 25 27 30 31 30 28 26 26 25 22 22 24 22 19 17 16 19 19 20 20 19 19 18 19 20 19 19 19 16 15 16 18 20 22 22 20 20 20 19 18 17 17 17 17 18 18 19 19 18 18 17 17 16 15 14 13 14 14 14 13 13 12 12 13 13 13 14 14 14 15 15 15 15 15 16 16 16 16 17 18 18 18 18 19 20 21 21 22 22 22 22 22 22 22 23
25 26 26 28 31 30 29 28 25 26 27 24 23 24 22 22 23 24 24 23 23 23 22 23 22 20 21 19 17 17 13 15 17 19 21 22 23 21 19 20 20 20 18 18 18 18 18 19 19 19 20 19 18 18 18 17 16 15 14 15 15 15 14 14 13 13 14 14 15 15 15 16 16 16 16 16 17 17 17 17 18 18 18 19 19 20 21 22 22 23 23 23 23 23 23 24 24
25 25 26 29 30 27 27 29 28 26 26 26 25 25 26 28 29 29 28 27 26 25 25 26 27 25 25 22 21 21 19 20 21 21 22 23 24 23 20 19 20 21 20 19 19 19 20 20 19 20 20 20 19 19 19 19 18 17 15 15 15 16 16 15 15 15 15 15 16 16 17 17 18 18 18 18 18 18 18 18 18 18 19 19 19 20 21 22 22 22 22 23 23 23 23 24 25
25 25 26 29 29 27 28 30 28 26 27 28 28 28 30 32 33 32 31 31 30 28 28 29 29 30 30 27 25 25 25 25 24 24 25 25 26 25 23 21 20 22 21 21 21 21 21 21 20 20 20 20 20 20 20 20 19 19 17 16 15 15 16 16 16 16 16 16 17 17 18 19 20 20 20 20 20 19 19 19 19 19 19 19 20 20 21 21 22 22 22 22 22 23 23 24 25
23 24 27 28 26 26 29 29 27 28 30 31 31 32 33 35 35 34 33 34 33 31 30 30 30 31 32 31 29 28 29 29 28 27 27 28 28 28 27 24 22 22 23 23 23 23 23 22 22 21 20 20 21 21 21 21 20 20 19 17 16 15 15 16 16 16 16 16 17 18 19 20 21 21 21 21 21 21 21 20 20 20 20 20 20 20 20 21 21 21 22 22 23 23 23 24 24
22 24 27 27 27 29 31 30 29 30 32 32 34 34 34 36 36 34 36 36 35 33 31 30 31 30 30 31 31 32 32 32 31 30 30 30 30 30 29 27 24 24 24 25 25 25 25 24 23 22 22 22 22 22 22 22 21 21 20 19 17 16 15 15 16 16 17 17 18 19 19 21 22 22 23 23 23 23 23 22 22 21 21 21 21 21 20 20 21 21 21 22 22 23 24 24 24
24 24 25 27 30 32 32 32 31 31 33 34 35 35 35 36 36 36 38 39 37 36 33 29 31 30 26 26 29 33 34 35 34 34 33 32 32 32 31 29 27 25 26 27 28 28 28 25 24 23 23 23 23 24 23 23 22 22 21 20 19 17 16 15 16 17 17 18 18 19 20 21 22 23 23 24 24 24 24 24 23 23 23 23 23 22 22 22 21 21 21 22 22 22 23 24 24
25 26 25 27 31 31 32 33 33 33 34 35 35 36 36 36 36 37 38 40 40 37 35 32 31 30 26 24 26 31 35 36 36 36 35 33 33 33 32 31 30 28 28 29 29 30 30 28 26 25 24 25 25 25 24 23 23 22 22 21 20 18 17 16 16 17 17 18 19 20 21 22 22 23 24 24 24 25 24 25 24 24 24 24 24 24 24 24 23 23 23 23 23 23 23 23 23
24 26 26 28 30 30 32 33 33 34 34 35 36 36 37 37 38 37 37 41 42 37 35 33 31 30 29 28 28 31 34 35 36 36 35 34 33 33 33 33 32 31 31 31 30 30 32 30 28 27 25 26 27 26 25 24 23 22 22 21 20 19 18 18 17 18 18 20 21 21 22 22 23 23 23 24 24 24 24 25 25 25 25 25 25 25 24 25 25 25 25 25 25 25 25 24 24
23 26 26 27 29 30 32 32 32 34 34 35 35 36 38 39 39 37 37 40 40 36 33 32 30 30 32 33 34 34 33 33 35 35 35 35 34 34 34 34 34 33 32 32 31 31 32 32 30 29 27 27 28 27 25 24 23 23 22 22 21 20 19 19 19 19 20 21 21 21 22 22 22 22 23 23 23 23 24 24 25 25 25 25 25 25 25 26 26 26 26 26 27 27 27 27 26
22 25 26 26 28 30 31 32 32 33 34 35 35 37 38 37 38 37 38 41 39 35 32 30 31 32 34 35 35 35 34 33 34 34 35 36 35 35 36 36 35 34 34 32 32 32 32 33 32 30 28 27 29 28 25 24 24 23 23 22 21 20 20 20 20 21 21 21 20 20 20 20 21 21 21 21 21 22 22 22 23 23 23 24 25 25 25 26 26 26 26 26 27 27 27 28 28
21 24 26 26 27 28 30 31 32 32 33 34 34 38 37 36 38 40 42 42 39 36 33 32 32 32 33 34 34 34 34 33 33 34 34 36 36 36 37 37 35 35 34 32 32 32 32 33 33 31 29 28 29 29 26 25 25 24 23 23 22 21 20 20 21 21 21 20 19 19 19 19 19 19 20 20 20 20 20 20 21 21 21 22 23 24 24 24 24 24 25 25 26 26 26 26 27
21 23 25 27 27 27 29 30 31 32 32 33 35 38 37 35 37 41 43 40 37 36 35 34 32 31 31 32 32 33 34 34 34 34 35 36 37 37 37 37 36 36 35 34 34 33 34 34 33 32 30 29 29 28 27 26 26 25 24 23 22 22 21 21 21 20 20 19 19 19 19 19 19 19 19 19 19 19 19 19 20 20 20 20 22 23 23 23 23 23 24 24 25 25 25 24 25
21 24 26 27 28 28 29 31 31 32 31 30 33 37 36 34 36 40 40 37 35 36 35 33 31 31 30 30 31 32 33 33 33 35 35 36 37 38 38 37 37 36 35 36 35 35 35 35 33 33 31 30 30 28 27 27 26 25 25 24 23 22 22 21 21 20 19 19 18 19 19 20 20 20 19 19 19 19 19 19 20 20 20 20 21 23 23 23 23 23 23 24 24 25 25 25 25
23 26 28 27 28 29 30 31 30 29 28 28 32 39 38 34 36 38 37 35 35 35 34 32 31 30 29 29 30 31 32 32 32 34 34 33 35 37 38 38 38 36 36 36 36 36 36 36 35 33 32 31 31 29 27 27 26 26 25 25 24 23 22 22 21 20 19 18 18 19 19 19 20 20 19 19 19 19 19 19 19 20 20 20 20 21 22 22 22 23 23 24 24 25 25 25 25
25 26 29 30 29 30 30 27 26 27 28 29 30 37 38 33 36 38 36 36 36 36 35 34 33 32 31 30 31 32 33 33 33 33 32 31 32 34 37 37 38 38 37 37 37 37 37 37 36 34 33 32 31 29 28 27 26 26 26 25 24 23 23 22 21 20 19 18 18 18 19 19 19 19 19 19 19 19 19 19 19 19 19 19 19 20 21 22 22 22 23 23 24 24 25 25 25
25 26 29 31 28 24 26 26 26 29 28 26 27 33 39 36 38 43 40 36 36 37 36 35 35 34 34 34 33 34 34 35 34 33 32 31 30 32 35 37 37 38 38 38 38 38 38 37 36 35 34 33 31 30 28 26 25 26 26 25 24 24 23 23 22 20 19 18 18 18 18 19 18 18 18 18 18 18 19 19 18 19 19 19 20 20 21 22 22 23 23 23 24 24 25 25 26
25 26 23 25 24 17 24 32 30 29 28 28 27 33 44 41 38 42 41 36 36 37 37 37 38 36 35 35 35 35 35 35 37 36 35 34 32 32 35 37 37 37 37 38 38 38 38 37 36 36 34 32 31 29 28 26 25 25 25 25 24 24 23 22 21 20 19 19 19 18 18 18 18 18 18 18 18 18 18 19 19 19 19 19 20 20 21 22 23 23 23 23 24 24 25 25 26
26 23 17 19 23 22 28 33 32 30 30 32 27 30 44 43 38 40 40 37 36 37 38 37 38 38 36 34 35 35 35 35 36 36 35 34 35 35 36 37 38 37 36 37 37 37 37 36 35 35 33 31 29 28 27 26 25 25 24 24 24 24 23 22 21 21 20 19 19 19 19 18 18 18 18 18 18 18 18 19 19 19 19 19 19 20 20 21 22 22 23 23 23 24 24 24 25
21 22 22 22 25 27 26 27 32 32 31 32 26 29 44 45 40 40 40 39 38 38 39 37 37 37 35 33 33 34 35 35 34 33 33 32 33 36 37 37 37 37 36 35 35 36 35 34 33 33 32 30 28 27 26 25 24 23 23 24 24 23 22 21 21 21 20 20 19 19 19 19 19 19 18 19 18 19 19 18 18 18 18 19 20 20 21 22 22 23 23 24 24 25 25 25 25
17 23 26 25 24 25 24 27 32 32 32 34 31 33 44 46 41 41 40 40 39 37 38 37 35 35 34 33 33 33 34 35 33 31 30 30 31 33 36 37 36 36 36 34 33 33 33 32 32 31 30 29 27 26 25 24 23 23 23 23 24 23 22 21 21 21 20 20 20 20 20 19 19 19 19 19 19 18 18 18 18 18 19 20 21 22 22 23 24 24 24 25 25 26 26 27 27
22 23 24 25 24 25 25 27 30 33 35 34 34 36 43 45 43 40 39 39 39 37 36 36 34 33 32 32 32 32 32 32 30 27 25 25 27 28 32 35 36 36 35 34 31 30 31 30 30 30 29 28 26 25 24 22 21 21 22 22 23 23 22 21 21 21 20 20 20 20 20 20 20 19 19 19 18 18 18 18 18 18 19 19 20 21 22 23 24 24 25 25 25 26 27 27 28
22 22 22 22 25 28 26 28 30 32 34 30 32 40 45 47 45 41 38 36 36 35 35 35 33 32 31 30 30 30 30 29 26 23 22 21 23 26 28 31 33 35 35 33 31 29 28 28 29 30 30 28 27 26 24 21 19 20 21 22 23 23 23 21 20 20 20 21 21 21 21 21 20 19 18 18 17 17 17 17 16 16 17 17 18 19 20 21 22 23 23 24 25 25 26 27 27
20 21 21 19 24 29 29 31 28 26 29 28 31 41 47 48 46 43 38 36 36 36 36 37 35 33 31 30 29 27 26 25 23 21 21 21 23 24 25 27 30 33 34 33 32 30 28 26 27 30 31 30 28 27 23 20 19 19 20 22 23 23 23 23 22 21 21 21 22 22 22 21 20 19 18 16 16 15 15 15 14 14 14 14 15 17 18 19 20 21 22 23 23 24 25 26 27
20 19 19 19 23 30 30 27 24 25 28 30 34 44 49 47 44 41 40 39 38 37 36 35 34 32 29 26 23 21 21 20 19 19 20 21 22 23 24 25 27 31 33 33 33 31 29 27 28 30 31 31 30 27 24 22 21 21 21 22 23 24 24 24 23 22 22 22 23 23 23 22 20 19 17 16 15 14 13 13 12 12 12 13 14 15 17 18 20 21 22 23 24 24 25 26 26
20 16 15 19 23 28 26 22 24 25 27 33 38 44 50 47 40 39 39 38 36 36 35 33 31 29 26 23 20 18 17 16 16 17 19 20 21 22 23 24 25 29 33 33 33 32 31 30 30 30 32 33 32 30 27 25 23 23 23 24 25 25 25 25 25 24 23 23 24 24 23 22 20 19 17 16 15 13 12 11 11 11 11 12 13 14 16 17 19 20 22 23 24 24 25 26 26
18 14 13 18 21 21 21 22 24 22 23 31 35 43 54 45 37 39 37 35 35 34 32 29 27 25 23 21 20 17 17 18 17 17 18 20 20 20 21 22 24 26 31 33 33 33 32 32 33 33 33 35 35 33 30 27 25 24 25 25 26 26 26 26 26 25 25 24 25 25 25 23 21 20 18 16 15 13 12 11 11 11 11 12 12 13 14 16 18 19 21 22 23 24 25 25 25
17 16 15 17 19 17 20 22 24 23 19 21 29 41 53 45 37 40 36 34 35 33 29 26 25 26 24 21 18 15 16 18 17 16 16 17 17 18 19 20 22 24 27 32 34 33 31 30 32 33 35 36 36 35 31 28 27 27 27 27 27 27 27 27 27 27 26 26 26 27 26 25 23 21 19 17 15 13 12 11 10 11 12 12 13 14 15 16 17 19 20 22 23 24 25 26 26
18 17 15 16 18 18 20 20 22 23 16 16 22 24 40 51 41 34 35 34 31 29 27 27 30 30 24 19 17 14 14 14 14 13 14 15 16 17 18 18 20 21 23 27 32 34 33 31 29 31 33 34 35 34 31 30 30 30 29 28 28 28 28 27 28 28 28 28 28 28 27 26 25 23 21 18 16 14 12 11 10 10 11 13 14 14 15 16 17 18 19 21 22 23 24 25 26
15 16 15 15 18 19 19 18 17 19 16 21 22 10 30 52 36 27 36 33 28 28 27 31 34 27 20 19 17 15 13 11 11 11 12 13 14 15 16 17 17 18 19 22 27 31 34 34 32 31 31 32 32 31 31 32 33 33 31 30 30 30 30 29 29 30 30 30 29 29 28 28 26 24 22 20 17 15 13 11 10 10 11 13 14 15 16 18 19 19 19 20 21 22 23 24 25
14 17 17 15 17 16 17 18 16 19 22 30 26 12 22 37 33 36 39 27 25 28 29 33 30 21 20 19 17 18 17 14 13 13 13 14 14 14 14 14 14 14 14 16 21 26 31 34 35 35 34 33 32 31 32 33 34 34 33 32 32 32 32 32 32 32 31 31 31 31 30 29 27 25 23 21 19 17 15 13 12 12 13 15 16 17 18 19 20 21 21 21 21 21 22 23 24
15 17 16 16 18 18 18 18 17 17 18 26 28 14 13 25 32 34 29 23 29 30 30 32 24 21 21 18 18 20 19 17 17 17 17 17 16 14 13 12 12 11 12 13 15 19 25 30 33 36 37 37 36 34 33 33 35 35 35 34 34 34 35 35 35 34 33 32 32 32 31 30 28 26 24 22 20 18 17 15 15 15 17 18 19 19 19 20 21 23 23 23 23 22 22 23 24
16 17 18 18 19 20 18 16 16 12 9 21 30 18 9 18 27 17 12 28 37 30 30 28 21 23 22 19 23 22 19 18 17 17 18 19 18 15 14 13 12 11 12 13 14 15 19 25 29 32 35 36 37 36 35 34 35 36 37 37 35 36 37 36 36 35 34 33 33 32 32 30 29 27 25 23 21 20 19 18 18 19 20 21 21 21 21 22 23 24 24 24 24 23 23 23 24
17 17 17 18 17 17 15 13 12 8 7 15 21 15 7 13 22 12 12 32 35 26 33 29 21 25 23 24 29 24 20 19 18 19 19 19 19 17 15 15 14 13 12 12 13 14 16 20 26 30 32 33 35 36 35 34 35 37 38 38 37 38 38 37 36 35 34 34 33 33 32 30 29 28 26 24 23 22 21 20 20 21 22 23 23 23 23 23 24 25 26 25 24 24 24 23 24
17 16 15 16 13 10 10 9 6 4 6 9 12 12 7 13 20 22 27 35 25 23 39 31 21 28 25 27 32 25 22 22 21 24 23 22 21 18 17 17 16 15 13 12 12 12 14 17 21 27 30 31 32 33 34 34 35 37 39 39 39 39 38 37 37 36 35 34 34 33 32 31 30 29 27 25 24 22 22 21 22 23 24 25 24 24 24 24 25 26 26 26 26 25 25 25 24
15 15 13 10 8 6 5 5 5 7 8 10 13 12 11 24 35 37 35 31 22 30 40 25 20 32 28 30 34 26 23 26 27 27 27 26 24 21 19 19 19 18 15 13 12 11 12 14 17 23 28 31 32 32 32 33 35 37 39 40 40 40 39 40 40 38 37 36 35 34 33 32 31 29 28 26 24 23 22 22 23 24 25 26 26 25 25 25 26 27 27 26 26 26 26 26 26
10 11 10 7 5 5 5 5 6 8 8 10 13 13 14 25 33 33 33 34 36 40 29 12 20 33 30 33 35 28 27 31 31 30 31 30 27 24 22 22 23 21 18 16 13 12 12 13 15 18 23 28 31 31 31 32 34 37 39 41 41 40 41 42 42 40 39 38 37 35 34 33 32 30 28 27 25 24 23 23 24 26 27 28 28 27 26 25 26 27 27 27 27 27 27 27 27
10 9 8 8 9 7 6 6 7 10 14 15 13 9 10 16 26 35 42 43 39 34 16 12 25 34 32 37 36 30 33 36 35 34 35 34 31 28 26 25 24 22 20 18 16 14 14 14 14 16 19 23 28 30 30 31 33 36 39 41 41 42 43 43 43 41 40 39 38 36 35 34 33 31 29 28 26 25 25 26 27 29 30 30 30 29 28 26 26 27 27 27 27 27 27 28 28
11 10 9 10 11 10 10 11 13 17 20 16 12 14 19 26 41 47 42 37 33 25 15 19 33 37 35 37 34 32 37 41 41 39 38 37 34 31 29 26 24 23 22 20 17 16 15 16 15 16 18 21 24 27 29 30 32 36 40 42 42 43 44 44 43 42 40 40 39 37 36 35 34 32 30 29 28 28 29 30 32 33 34 33 31 30 29 27 26 27 27 27 28 28 28 28 28
10 10 11 13 11 10 12 14 15 15 16 12 12 21 27 25 38 41 32 34 37 30 25 30 37 38 38 38 35 37 42 44 45 43 41 38 34 32 30 26 23 24 24 22 19 17 17 17 17 16 18 21 23 26 28 30 32 36 40 42 43 44 45 45 44 43 41 41 39 38 37 36 35 33 31 30 30 31 33 35 36 37 36 35 33 31 29 28 27 27 27 28 28 28 28 28 28
15 13 12 13 12 12 10 9 10 8 11 12 12 23 23 11 22 38 35 35 40 37 34 37 39 39 41 42 42 44 45 45 45 44 41 37 33 32 30 27 24 24 26 24 20 19 19 19 18 17 17 20 23 26 27 30 33 36 41 44 45 46 46 46 45 43 42 42 40 39 38 37 36 34 33 33 33 34 36 38 38 38 37 36 34 32 30 28 27 27 27 28 28 29 29 29 29
20 19 17 14 10 10 8 6 8 7 9 11 13 22 22 17 30 39 34 32 37 38 38 40 42 42 43 45 47 47 45 44 44 41 39 36 34 31 30 28 24 24 26 25 22 21 21 19 20 19 18 18 23 26 28 30 33 37 42 46 47 48 48 47 46 45 43 43 42 41 40 38 37 36 36 35 35 35 36 38 38 38 37 36 35 33 31 28 28 28 28 28 29 29 29 29 29
21 23 23 20 17 15 13 10 8 8 9 11 15 16 13 21 33 31 29 37 41 39 41 45 46 43 45 49 50 47 44 42 41 39 37 35 33 31 29 27 25 24 25 25 23 23 23 21 21 22 20 19 21 26 29 30 32 37 43 47 49 49 49 48 47 45 44 43 43 42 41 40 39 38 37 36 35 35 37 37 37 37 36 36 35 33 30 28 28 28 28 28 29 29 29 29 29
20 23 23 23 23 19 18 18 17 15 11 8 14 12 9 19 30 28 32 44 45 42 45 49 47 46 49 52 49 46 44 39 37 37 35 34 32 30 29 27 25 25 25 25 24 23 23 23 23 24 23 21 21 24 28 30 31 35 42 48 50 50 49 48 46 45 45 44 43 43 42 41 40 38 37 36 35 36 36 36 36 35 35 35 34 32 29 27 27 28 28 29 29 29 29 29 30
22 23 24 25 24 18 15 16 18 22 17 12 13 15 21 35 39 37 42 47 44 45 48 50 50 51 52 51 48 44 41 37 35 34 33 32 32 30 29 28 26 26 26 26 25 24 23 24 23 24 24 22 21 23 27 30 31 34 41 47 50 50 49 48 46 46 45 45 44 44 43 42 40 39 38 36 36 36 36 36 35 34 34 33 32 29 27 26 27 28 29 29 29 29 30 30 30
Wind_Direction
318 315 313 316 319 322 320 324 328 318 317 299 287 305 302 300 299 300 309 309 300 293 285 273 269 270 276 281 284 289 294 305 309 307 300 296 306 307 303 302 298 295 289 284 280 277 276 274 274 274 277 279 280 280 279 278 276 274 272 269 266 264 262 258 255 252 252 254 253 251 249 247 247 249 249 245 241 238 237 239 242 245 248 249 253 259 265 274 279 280 280 277 269 262 257 256 255
318 317 316 317 319 323 320 325 329 314 311 294 292 304 305 309 305 301 304 306 303 300 292 277 271 272 275 278 281 289 294 298 299 297 294 297 302 300 299 295 292 289 283 280 277 276 275 274 274 275 277 279 281 281 280 280 278 277 275 273 269 264 261 257 254 251 249 250 252 252 251 249 248 248 249 248 246 244 243 242 244 246 248 250 253 257 262 269 274 274 273 269 265 261 259 256 256
317 317 318 318 320 321 321 325 326 312 304 298 308 311 315 318 304 297 298 301 302 300 291 279 275 275 277 280 283 289 291 292 294 295 296 298 299 297 293 288 285 281 278 276 274 274 272 273 275 276 278 279 279 278 278 278 278 277 275 273 269 265 261 258 255 253 251 250 250 252 252 252 250 249 248 249 248 247 246 246 247 248 251 253 255 257 260 266 271 271 270 267 263 261 261 259 259
316 317 318 319 320 322 324 325 315 305 301 304 312 309 316 314 297 292 292 295 296 296 289 282 279 280 282 282 285 290 289 288 291 295 297 299 301 297 290 285 281 278 276 274 273 271 271 273 274 275 277 277 276 275 275 275 276 274 273 272 270 268 264 260 258 255 254 253 252 253 254 254 254 253 251 251 251 250 250 250 251 252 254 257 257 258 261 265 270 270 269 267 263 264 263 259 258
313 315 317 318 320 320 322 320 311 301 295 301 303 306 311 304 292 288 289 290 290 290 286 283 280 282 283 281 285 288 288 288 290 294 296 299 302 301 293 286 280 278 277 276 275 272 272 272 271 272 273 274 275 274 273 271 271 271 271 271 270 270 268 264 261 259 257 257 256 255 255 255 256 256 255 254 254 254 254 254 254 255 257 258 259 260 262 265 269 270 269 267 264 267 267 262 260
310 312 313 314 314 314 316 311 302 293 292 299 297 302 304 299 293 287 286 285 285 284 282 282 281 283 282 282 286 286 287 289 290 293 295 299 303 302 296 288 283 280 280 279 276 273 272 269 268 268 268 270 272 272 270 268 267 268 269 270 270 270 269 267 264 262 260 260 259 258 257 256 256 257 257 257 256 255 255 256 256 257 258 259 260 260 262 264 268 269 268 267 266 269 269 265 262
306 308 309 311 311 310 309 298 296 294 301 308 300 297 296 296 294 288 286 284 282 281 280 279 279 280 280 284 288 286 288 289 290 291 292 298 304 303 294 287 284 283 282 278 275 274 272 268 265 262 262 263 264 267 266 265 264 263 264 265 268 268 267 265 264 263 261 262 261 261 261 260 259 259 259 259 258 258 257 258 257 258 259 259 260 261 262 263 265 266 265 265 266 270 271 267 264
303 304 305 309 308 306 302 297 298 299 306 313 305 300 294 294 294 291 289 284 282 280 278 276 276 276 277 285 288 286 289 290 288 287 289 296 304 305 293 284 283 283 280 278 278 278 274 267 262 257 255 254 257 260 263 263 262 261 262 263 264 265 265 264 264 265 264 263 263 263 265 264 263 263 262 262 262 262 261 260 260 260 260 259 260 260 261 261 263 264 263 263 264 267 268 267 265
298 300 301 303 302 299 295 295 298 299 305 310 308 306 297 294 294 293 290 285 282 278 278 276 274 274 278 284 286 286 287 287 285 284 287 291 299 304 296 287 281 280 280 281 282 281 275 268 262 256 251 248 250 254 259 262 262 261 260 262 264 264 265 265 264 264 263 263 264 266 268 267 265 264 263 263 263 263 263 263 262 262 262 261 260 260 260 260 260 261 261 261 261 261 262 263 263
295 294 297 298 296 293 289 290 295 297 301 306 309 308 301 294 292 292 287 283 283 281 280 279 277 276 279 281 284 285 282 282 281 283 286 287 293 301 300 292 285 282 281 282 282 279 275 270 264 259 254 249 246 248 253 258 261 261 259 261 262 264 264 264 264 263 262 260 261 262 264 264 262 262 261 261 261 261 262 262 262 262 261 261 259 259 259 259 259 260 260 259 257 256 257 258 259
294 292 293 294 290 284 281 284 290 293 298 303 307 306 301 293 288 287 283 280 281 283 283 282 281 279 277 278 280 281 278 277 277 280 285 287 291 298 301 296 289 284 281 278 276 275 274 271 266 261 258 254 248 244 245 251 256 258 257 258 258 261 262 263 265 265 264 260 257 256 257 257 256 256 256 257 258 259 259 259 260 260 261 261 260 259 258 258 258 258 258 256 255 253 253 254 254
293 293 293 291 283 279 280 283 286 291 295 301 303 300 299 293 286 282 279 278 278 282 284 282 282 280 278 277 278 279 277 273 273 278 283 286 291 296 299 298 294 288 282 276 271 271 272 271 268 264 260 258 255 248 242 243 248 253 254 253 254 256 258 261 263 266 267 264 262 260 260 259 256 255 254 254 256 256 256 258 259 259 259 259 258 257 257 257 256 256 257 257 256 254 252 251 251
292 291 292 289 283 280 282 284 287 292 295 298 298 296 298 293 284 275 270 271 274 279 283 282 282 280 277 277 279 277 274 270 270 274 279 284 291 295 296 297 297 291 284 278 272 268 268 268 267 266 263 261 260 256 249 243 243 248 252 252 252 252 256 260 262 264 266 267 266 264 263 263 261 260 259 259 258 257 257 258 260 261 261 260 259 258 257 257 256 256 256 256 255 253 251 250 250
289 289 290 286 283 283 284 285 288 293 294 294 295 294 294 288 280 276 271 269 271 273 276 277 278 278 274 274 277 276 271 263 261 266 275 282 288 292 294 296 296 292 285 278 274 269 265 265 265 265 264 263 262 261 258 253 249 247 252 256 257 257 258 260 264 266 267 268 268 266 265 263 263 262 262 263 262 262 261 260 259 260 260 260 260 260 259 259 258 257 257 256 254 252 250 249 249
286 287 287 285 284 284 284 285 287 291 291 291 292 289 288 283 281 281 279 275 271 269 271 272 271 271 270 265 264 266 258 248 254 265 274 280 285 287 289 293 293 290 285 278 273 269 264 261 262 263 264 263 262 263 263 262 260 257 257 259 264 267 267 268 270 271 272 273 273 272 270 268 266 265 263 262 262 262 263 263 262 261 261 260 258 257 256 256 256 256 255 254 252 250 249 248 248
284 284 283 282 282 280 282 285 290 292 288 288 288 285 284 281 280 280 280 278 274 272 272 269 266 263 261 258 256 257 256 256 262 270 274 277 281 283 283 287 289 287 284 279 273 269 264 261 260 261 262 263 262 262 263 264 265 265 265 264 268 272 275 277 278 279 279 280 280 280 279 278 275 273 271 269 267 265 265 266 267 267 267 266 264 263 261 260 259 259 258 257 255 253 251 251 250
282 282 280 279 279 278 281 287 290 288 284 286 286 282 280 279 279 279 279 278 277 276 273 270 266 264 262 260 259 259 261 264 267 269 272 274 277 279 279 283 286 284 283 280 275 271 267 263 260 260 261 262 262 261 262 263 263 265 266 266 267 271 276 279 282 284 285 285 286 286 286 285 283 281 280 277 275 274 273 271 270 270 270 270 270 270 269 268 267 266 265 264 263 261 259 258 257
284 281 279 278 278 277 282 286 286 284 284 285 283 280 281 281 282 283 281 279 277 275 273 274 273 271 269 266 263 261 261 262 263 264 266 268 271 274 276 281 284 282 282 282 278 274 269 264 261 261 262 262 262 262 262 263 263 263 264 265 265 267 271 275 279 282 284 285 286 287 287 286 286 285 283 282 281 279 277 275 274 273 272 272 271 271 271 271 271 271 270 269 268 267 266 264 263
288 282 280 280 278 278 283 286 284 284 283 283 282 283 284 284 286 287 283 280 279 276 275 278 280 278 275 271 266 263 263 262 261 260 260 262 265 268 272 277 281 280 282 282 279 276 272 268 265 263 263 263 262 262 263 264 265 265 264 264 264 264 266 270 274 276 279 280 281 283 283 283 284 284 284 283 282 281 279 277 276 276 275 274 273 273 273 274 274 274 273 272 271 270 269 268 268
290 285 282 281 282 285 287 287 287 286 286 286 286 287 285 286 288 285 284 284 281 280 281 282 282 280 276 274 270 266 264 264 264 262 262 263 265 268 271 275 277 276 278 279 278 278 276 274 270 265 263 262 262 261 261 262 264 265 266 265 264 263 263 264 267 271 274 276 277 278 278 278 278 279 279 279 279 279 279 279 278 277 276 275 274 274 274 274 274 274 274 274 273 271 271 271 271
291 289 285 285 287 290 289 289 290 290 291 291 290 289 289 289 287 285 288 286 281 283 287 286 282 279 276 275 272 266 262 262 264 265 265 266 268 270 271 272 273 273 273 273 274 276 277 276 272 266 261 261 261 261 260 260 262 263 264 265 265 262 261 261 263 267 271 273 274 273 273 272 272 273 273 274 274 274 275 275 275 275 274 274 274 274 274 273 273 273 273 274 273 273 272 272 272
294 292 290 290 291 290 289 292 294 293 293 292 291 292 292 290 287 288 290 284 284 289 289 285 282 279 278 278 274 268 263 261 261 263 264 265 267 268 269 269 269 268 267 267 268 271 274 273 270 266 262 259 259 260 261 261 262 263 264 264 264 263 262 263 265 268 269 270 270 270 269 268 268 268 268 269 270 271 271 271 270 270 270 271 271 272 272 272 273 273 273 274 274 275 275 274 273
295 293 293 294 293 292 293 296 296 295 295 294 295 294 291 290 289 290 288 284 286 289 288 286 284 279 278 279 277 273 268 262 259 259 260 261 261 262 263 262 261 261 260 261 263 265 270 272 270 267 262 259 258 260 262 263 263 263 264 264 264 264 266 269 271 270 269 267 267 266 266 266 266 266 266 267 268 269 269 269 268 268 269 269 269 268 268 269 270 270 271 272 273 274 274 274 274
298 297 299 297 295 296 297 297 296 297 298 297 298 292 289 291 291 289 284 283 286 287 289 287 280 276 275 275 274 273 270 265 260 258 259 259 258 258 259 259 257 258 258 258 261 263 267 270 270 267 263 257 258 261 264 265 265 265 265 265 266 267 269 272 273 271 269 266 264 263 263 264 265 265 266 266 266 266 267 268 268 268 268 268 267 267 266 267 267 268 268 269 269 270 270 272 272
308 305 303 300 298 298 297 297 297 298 296 296 294 288 289 292 289 285 281 284 288 289 290 285 281 279 276 274 272 271 270 267 262 259 259 259 259 258 258 258 258 257 258 258 259 261 264 267 268 268 264 257 257 260 264 265 265 266 266 266 267 268 269 269 270 269 267 265 263 262 262 262 263 263 264 264 264 264 265 265 266 266 265 265 265 266 265 264 265 265 266 265 265 266 265 266 267
311 306 301 299 300 300 298 297 298 298 296 296 292 287 289 290 287 283 282 288 292 290 288 287 285 280 277 275 273 272 269 268 266 263 260 259 260 259 258 258 258 256 256 257 257 259 261 264 267 268 265 259 256 259 262 264 264 266 267 267 267 267 268 267 265 265 264 263 263 264 264 265 264 263 263 263 263 263 263 263 264 264 262 262 263 264 263 261 261 261 261 262 263 263 263 262 261
306 301 299 300 302 303 302 301 301 301 300 301 295 289 289 291 288 285 287 295 295 292 291 290 286 280 278 278 276 275 273 272 271 268 265 262 261 260 260 259 258 257 255 255 256 257 259 262 264 265 264 259 257 258 260 261 262 264 266 266 267 268 267 265 263 260 260 261 263 265 266 268 267 266 264 263 262 262 262 262 262 263 263 262 262 264 264 264 264 263 262 263 263 263 263 263 262
304 303 304 305 306 305 304 304 305 306 307 306 299 293 292 293 290 287 291 297 297 295 294 294 292 287 283 279 277 276 275 275 274 271 268 264 261 260 260 260 260 258 254 253 254 255 256 258 260 261 261 258 256 257 258 258 259 262 264 265 267 268 267 265 262 259 259 260 262 264 266 267 267 266 265 264 263 262 263 263 263 264 265 265 265 266 268 268 268 268 267 267 267 267 267 267 267
307 309 310 308 310 308 305 307 308 310 312 310 307 301 298 298 295 293 294 297 299 298 297 296 294 290 286 282 278 275 274 274 272 272 270 265 261 259 259 259 259 258 255 253 252 253 255 256 258 257 257 255 253 255 255 254 256 259 262 264 265 267 267 266 262 259 258 259 261 264 264 265 265 265 266 266 266 266 266 267 266 267 268 269 269 268 270 271 270 270 270 270 270 270 270 270 270
310 313 310 308 314 313 306 308 308 309 310 311 315 306 298 298 298 297 298 301 301 299 296 295 292 289 287 285 281 277 277 278 278 278 276 270 262 258 258 258 258 258 256 254 252 253 255 256 257 255 254 253 251 251 252 250 252 256 259 261 263 264 265 265 262 260 259 259 261 262 262 262 262 262 264 266 267 268 269 270 269 269 270 270 270 270 270 270 271 270 270 270 271 270 270 270 270
312 313 310 309 316 313 303 307 309 311 310 310 313 301 295 297 296 296 300 304 303 298 296 296 295 293 291 290 288 285 283 284 284 283 280 275 268 259 255 255 257 258 255 254 253 253 254 255 255 254 251 250 249 247 247 246 248 251 255 258 260 262 264 263 261 259 258 260 261 261 261 260 260 261 262 264 266 267 269 270 271 271 271 270 269 269 269 269 270 270 270 270 270 270 270 270 270
315 315 312 310 310 307 305 308 312 314 313 313 311 297 295 295 293 295 301 303 301 299 298 298 298 298 297 296 294 290 286 283 282 282 281 278 272 264 256 253 254 257 256 253 252 254 253 252 253 252 249 247 244 242 241 243 245 248 251 255 258 261 262 261 258 256 256 258 260 260 259 259 259 260 261 262 264 266 268 269 270 271 272 272 271 270 270 270 271 272 272 272 271 271 270 270 270
317 315 310 308 307 308 310 311 315 318 318 315 312 302 298 295 294 298 301 302 301 300 299 299 299 300 300 298 293 290 288 286 284 284 285 280 272 266 260 254 252 255 257 255 253 254 251 249 250 248 245 242 237 236 238 242 244 247 250 252 255 259 261 260 256 254 255 256 258 258 257 257 257 257 258 260 262 264 266 268 270 271 273 274 275 275 274 274 273 272 273 273 273 272 271 271 270
314 313 310 309 308 309 311 312 317 324 322 317 315 307 298 295 297 301 303 305 305 302 300 300 300 299 298 295 292 290 289 289 291 290 287 283 275 267 262 258 254 253 256 256 254 253 249 247 247 244 241 237 232 233 237 240 244 247 249 250 253 257 260 260 257 254 254 254 255 255 255 254 254 255 256 258 260 262 265 267 270 272 273 274 276 277 277 277 276 273 272 271 271 271 271 271 271
307 308 308 308 307 306 308 313 322 326 321 318 318 310 300 297 300 304 308 310 307 304 302 303 303 301 300 297 294 293 292 293 297 297 291 285 279 270 262 258 255 252 254 255 253 250 248 246 246 241 235 232 230 231 235 239 245 247 250 252 253 256 258 259 258 256 254 253 254 253 253 253 253 254 255 257 260 263 266 269 271 272 274 276 277 278 279 279 279 278 276 273 272 270 270 270 270
300 302 302 304 305 305 309 317 324 326 320 317 318 312 304 302 305 308 310 309 307 307 309 309 310 311 310 306 302 303 304 303 305 301 291 283 277 271 263 256 253 251 250 251 251 248 245 245 245 240 233 228 227 230 234 240 247 251 254 256 255 255 256 258 259 257 255 253 253 252 253 254 254 255 256 259 263 265 268 269 271 274 277 280 282 284 285 285 285 283 281 279 277 275 273 272 271
295 298 298 299 301 304 314 320 324 329 319 313 316 311 305 305 308 311 312 311 310 312 315 317 318 320 318 315 314 314 312 309 306 295 285 278 273 271 266 256 249 247 246 245 246 246 243 242 243 240 234 229 227 230 236 243 249 253 254 255 256 256 256 258 259 257 255 252 251 251 252 253 254 256 258 261 265 267 269 272 274 277 281 286 290 292 293 293 292 290 288 286 283 281 279 277 276
296 296 298 299 302 308 316 321 325 330 319 311 315 310 304 307 310 312 315 315 316 320 323 324 326 331 333 332 331 326 318 310 302 292 285 279 273 270 268 260 248 242 242 242 242 242 240 240 241 240 234 230 229 231 237 243 247 249 250 253 254 255 258 260 259 258 255 251 250 250 250 251 251 253 256 259 264 269 274 279 282 286 290 294 297 298 298 298 297 296 294 292 289 287 285 283 282
297 295 294 298 309 316 317 319 324 326 316 312 315 308 304 308 312 318 324 324 328 332 333 337 342 347 350 348 346 339 331 323 311 299 290 285 278 272 268 264 252 240 238 238 239 239 238 237 238 239 236 232 231 232 236 241 246 249 251 253 254 255 257 257 257 256 254 252 250 250 248 248 247 248 251 256 262 269 277 286 293 297 300 302 304 305 305 303 301 299 297 295 293 291 289 287 285
297 293 287 296 315 320 308 311 318 317 312 311 313 307 304 309 317 326 334 339 344 348 348 353 359 1 360 355 354 348 343 338 326 312 302 296 291 286 278 271 261 246 237 236 237 237 237 236 236 237 236 234 234 234 237 241 246 250 252 253 253 254 256 256 255 254 254 253 250 249 248 247 246 246 248 253 259 267 277 288 298 305 309 312 314 315 313 311 308 305 302 300 297 295 293 291 289
297 291 288 300 316 312 299 305 311 314 315 310 316 312 305 310 324 329 337 348 355 0 3 7 6 1 358 355 355 347 337 333 324 319 320 315 308 303 296 286 275 260 245 237 235 235 235 235 235 236 235 235 235 236 238 243 246 249 252 254 255 256 258 258 257 257 255 253 250 248 248 246 245 246 248 252 257 264 273 285 297 307 315 317 320 321 320 318 316 313 310 306 303 300 297 295 293
293 292 298 309 310 304 301 307 313 318 320 309 323 322 304 311 325 331 337 348 357 3 8 9 2 357 358 358 356 346 332 326 318 323 333 331 322 311 306 301 291 277 262 247 238 235 235 235 235 236 236 235 236 238 242 246 247 248 251 255 256 257 260 261 261 259 256 252 249 247 246 245 245 246 249 251 255 261 268 279 293 306 315 319 322 324 322 319 317 316 315 311 307 304 300 297 294
286 290 306 308 301 301 302 307 313 314 308 303 312 300 295 310 322 326 328 338 353 2 5 360 355 357 3 3 3 357 348 342 337 340 344 340 333 322 313 310 305 293 278 262 250 242 238 237 236 236 236 236 238 242 247 249 248 247 249 253 254 254 255 256 256 256 254 251 248 246 245 244 245 246 248 251 254 258 264 274 287 302 313 318 320 324 325 322 316 312 312 312 311 308 304 300 296
278 291 307 302 298 300 298 304 303 299 300 301 301 274 279 296 304 314 321 332 349 353 356 354 355 3 6 4 7 3 359 358 355 354 353 351 347 338 325 312 306 300 288 275 260 250 244 242 241 240 239 239 240 244 247 249 249 249 249 252 253 252 252 251 252 252 252 249 246 245 244 243 244 245 247 249 252 256 261 270 282 297 307 312 314 318 322 324 321 314 308 307 310 310 308 305 300
277 291 299 294 297 296 296 300 294 298 305 298 295 286 267 277 291 312 320 326 339 344 350 357 5 9 6 7 5 356 352 351 350 352 351 350 350 347 341 326 310 299 291 283 269 255 247 243 243 243 243 243 244 244 245 247 249 250 250 250 251 251 251 250 251 251 249 247 245 244 243 243 243 244 245 247 251 254 260 268 280 292 301 307 309 310 313 318 321 318 310 305 304 306 308 307 304
279 288 293 292 294 293 297 297 291 300 286 279 290 293 272 280 292 305 310 320 331 338 346 355 4 3 3 2 355 347 342 342 343 346 345 344 344 342 342 338 328 313 297 287 277 266 252 244 240 241 242 243 243 243 242 243 247 249 249 249 249 248 249 250 251 250 249 246 244 243 242 242 242 243 245 246 250 254 260 268 279 290 298 303 305 306 307 310 314 316 313 305 301 301 303 304 303
280 285 289 293 293 291 295 290 290 302 258 269 294 297 271 284 296 288 286 316 327 334 339 344 351 355 353 351 352 348 342 341 340 341 340 339 339 334 331 331 329 323 310 297 284 273 264 252 243 238 237 237 238 238 238 241 245 247 248 247 246 246 247 249 249 248 247 246 244 243 242 241 242 243 245 247 250 255 261 270 280 289 297 302 303 303 304 306 308 310 311 306 300 298 298 299 299
275 279 286 297 300 292 284 272 264 262 258 279 299 300 254 244 279 288 295 314 326 330 331 331 340 349 343 342 349 349 345 343 340 338 335 334 335 332 328 323 320 318 310 305 295 279 269 260 250 242 237 235 235 236 237 241 244 246 246 244 243 244 244 243 243 243 243 243 242 242 242 242 243 244 245 247 251 257 264 273 282 290 297 301 303 302 302 304 306 306 306 304 299 296 296 295 294
268 268 271 288 300 291 270 256 252 246 256 275 286 299 261 252 276 289 299 317 326 322 323 320 335 343 334 335 344 345 343 340 335 334 332 331 331 330 328 322 318 315 306 300 296 291 278 263 255 247 240 237 236 237 239 242 245 245 243 243 242 241 240 239 239 239 239 240 240 241 241 242 243 244 245 248 252 259 267 275 283 291 297 301 302 301 301 302 304 304 302 300 296 295 295 294 292
264 248 238 249 281 302 289 282 287 269 265 276 281 291 276 270 285 294 302 311 312 316 317 292 319 331 325 331 339 340 338 334 331 331 331 331 329 328 327 322 319 316 308 298 290 291 289 274 262 251 245 240 238 239 242 244 246 245 243 242 242 240 238 238 238 239 239 239 240 240 240 241 242 244 246 249 254 261 268 276 283 290 296 299 300 299 299 300 301 301 299 297 294 293 292 292 291
266 243 227 246 265 274 283 302 303 293 301 298 282 271 259 274 292 297 303 306 310 317 305 263 308 321 322 329 333 332 331 330 329 329 329 330 328 326 325 321 319 316 309 301 290 289 292 287 272 255 247 242 239 239 241 244 246 245 243 242 241 239 239 239 239 240 240 240 240 240 240 241 242 244 247 250 255 262 269 276 282 287 292 295 296 296 297 298 298 298 296 294 292 291 290 290 289
258 240 222 243 257 257 271 288 285 291 302 293 263 253 257 281 298 302 305 309 314 317 290 285 312 319 323 330 329 325 326 326 327 328 328 328 325 323 322 319 317 314 310 302 290 287 289 290 282 263 250 243 240 238 237 242 244 243 243 242 241 240 239 239 239 240 241 240 241 241 241 242 243 245 247 251 256 262 268 274 278 282 287 291 293 294 294 295 295 295 294 292 291 290 289 288 287
247 234 229 250 259 255 266 281 283 286 292 276 256 269 274 290 305 306 309 311 313 312 299 303 316 321 325 328 325 323 323 325 327 327 327 325 323 320 317 315 313 310 309 304 290 284 288 290 286 275 258 245 242 240 236 238 241 241 241 240 239 239 238 239 239 240 240 240 240 240 241 242 243 245 248 252 258 263 268 273 276 280 284 288 291 292 292 292 293 292 291 290 289 289 287 287 286
245 239 247 264 267 261 257 274 291 284 280 272 251 268 281 291 294 299 309 315 314 312 308 311 317 321 325 324 323 324 325 326 327 326 326 323 319 315 312 310 309 306 307 306 293 282 287 291 290 286 271 252 243 242 240 238 238 238 238 238 237 237 237 238 238 239 239 239 239 240 240 242 243 246 250 255 260 264 269 273 276 280 284 287 288 289 289 290 291 291 290 289 289 288 287 286 285
249 244 250 257 257 263 244 242 286 282 283 289 258 262 272 262 272 291 306 313 313 312 314 317 319 320 321 322 325 327 328 328 327 324 322 320 316 312 309 308 307 305 305 305 296 282 281 288 290 289 285 267 248 242 242 240 238 237 235 235 235 235 235 235 236 237 237 238 238 239 240 241 244 248 251 256 260 265 269 273 277 281 284 286 287 287 288 289 290 289 289 289 288 287 286 285 285
254 244 244 246 249 259 253 243 262 272 280 292 282 273 256 256 274 289 300 307 310 311 316 321 321 319 319 322 326 328 328 327 324 321 318 316 315 311 310 307 304 304 302 301 298 286 277 280 285 287 288 281 260 246 243 243 241 238 236 234 233 232 232 233 234 235 235 236 237 237 239 241 244 248 251 256 261 266 270 274 278 281 284 285 285 284 286 287 288 288 288 287 286 286 285 284 284
258 246 238 239 240 243 252 253 245 250 264 285 291 284 247 269 286 287 291 303 307 308 316 320 319 317 318 322 325 326 326 324 320 317 314 312 311 309 308 305 301 301 300 298 296 288 278 275 277 282 284 283 271 253 245 244 243 240 236 234 232 231 231 232 233 233 234 234 235 237 239 241 244 248 253 258 263 267 272 275 278 281 282 283 282 282 284 285 286 286 285 285 284 284 283 283 283
260 256 252 250 246 236 248 261 244 238 241 247 271 279 274 282 286 283 291 303 305 307 313 315 316 318 319 321 324 323 323 321 317 314 310 309 308 307 306 304 301 298 296 294 292 287 279 272 273 278 279 279 274 259 247 244 243 240 237 234 233 231 231 232 232 233 233 234 235 237 239 243 246 250 255 260 264 268 272 275 278 279 280 280 280 281 283 283 284 284 283 283 282 282 282 282 283